This demonstration page uses our WeatherBlox Daily Observations layout. Learn more.

Left ArrowRight Arrow

39.51506, -84.39828

Hourly Observations for January 3, 2019

Temp ( °F °C ) Dew Point ( °F °C ) Humidity (%) Winds ( mph kmh ) Pressure ( in mb ) Visibility ( mi km ) Precip ( " mm )
12:15 am 00:15 Cloudy 35 1.9 31 -0.6 84 84 WNW 13 20 30.12 1020 10 16 0.00 0.00
12:35 am 00:35 Cloudy 35 1.9 30 -0.9 82 82 W 9 15 30.15 1021 10 16 0.00 0.00
12:55 am 00:55 Cloudy 36 2 30 -1.1 80 80 W 8 13 30.15 1021 10 16 0.00 0.00
1:15 am 01:15 Cloudy 35 1.9 30 -1.3 80 80 WNW 7 11 30.12 1020 10 16 0.00 0.00
1:35 am 01:35 Cloudy 35 1.9 29 -1.4 79 79 W 9 15 30.12 1020 10 16 0.00 0.00
1:55 am 01:55 Cloudy 35 1.9 30 -1.3 80 80 W 7 11 30.15 1021 10 16 0.00 0.00
2:15 am 02:15 Cloudy 35 1.8 30 -1.3 80 80 W 6 9 30.12 1020 10 16 0.00 0.00
2:35 am 02:35 Cloudy 35 1.8 29 -1.5 79 79 W 6 9 30.12 1020 10 16 0.00 0.00
2:55 am 02:55 Cloudy 35 1.8 29 -1.7 78 78 W 7 11 30.12 1020 10 16 0.00 0.00
3:15 am 03:15 Cloudy 35 1.8 29 -1.7 78 78 W 5 7 30.12 1020 10 16 0.00 0.00
3:35 am 03:35 Cloudy 35 1.8 28 -2 76 76 W 6 9 30.15 1021 10 16 0.00 0.00
3:55 am 03:55 Cloudy 35 1.8 29 -1.8 77 77 W 7 11 30.12 1020 10 16 0.00 0.00
4:15 am 04:15 Cloudy 35 1.7 29 -1.6 79 79 W 5 7 30.12 1020 10 16 0.00 0.00
4:35 am 04:35 Cloudy 35 1.7 29 -1.9 77 77 W 6 9 30.12 1020 10 16 0.00 0.00
4:55 am 04:55 Cloudy 35 1.6 29 -1.8 78 78 W 6 9 30.12 1020 10 16 0.00 0.00
5:15 am 05:15 Cloudy 35 1.6 29 -1.7 79 79 W 5 7 30.12 1020 10 16 0.00 0.00
5:35 am 05:35 Cloudy 35 1.4 29 -1.9 79 79 NW 7 11 30.15 1021 10 16 0.00 0.00
5:55 am 05:55 Cloudy 34 1.2 28 -2 79 79 WNW 8 13 30.15 1021 10 16 0.00 0.00
6:15 am 06:15 Cloudy 34 1 28 -2.4 78 78 WNW 8 13 30.15 1021 10 16 0.00 0.00
6:35 am 06:35 Cloudy 34 0.9 28 -2.5 78 78 W 6 9 30.15 1021 10 16 0.00 0.00
6:55 am 06:55 Cloudy 34 0.9 28 -2.3 79 79 WNW 3 6 30.15 1021 10 16 0.00 0.00
7:15 am 07:15 Cloudy 33 0.7 28 -2.4 80 80 WNW 7 11 30.15 1021 10 16 0.00 0.00
7:35 am 07:35 Cloudy 33 0.6 28 -2.5 80 80 W 6 9 30.15 1021 10 16 0.00 0.00
7:55 am 07:55 Cloudy 33 0.5 27 -2.6 80 80 W 7 11 30.18 1022 10 16 0.00 0.00
8:15 am 08:15 Cloudy 33 0.4 27 -2.6 81 81 Calm 30.18 1022 10 16 0.00 0.00
8:35 am 08:35 Cloudy 33 0.4 27 -2.7 80 80 SW 7 11 30.18 1022 10 16 0.00 0.00
8:55 am 08:55 Cloudy 33 0.5 28 -2.4 81 81 W 5 7 30.18 1022 10 16 0.00 0.00
9:15 am 09:15 Cloudy 33 0.4 27 -2.6 81 81 W 6 9 30.18 1022 10 16 0.00 0.00
9:35 am 09:35 Cloudy 33 0.5 27 -2.6 80 80 W 7 11 30.21 1023 10 16 0.00 0.00
9:55 am 09:55 Cloudy 33 0.7 28 -2.4 80 80 SW 6 9 30.21 1023 10 16 0.00 0.00
10:15 am 10:15 Cloudy 34 0.9 28 -2.4 79 79 WSW 7 11 30.21 1023 10 16 0.00 0.00
10:35 am 10:35 Cloudy 34 1 28 -2.3 79 79 WSW 8 13 30.21 1023 10 16 0.00 0.00
10:55 am 10:55 Cloudy 34 1.1 28 -2.1 79 79 W 7 11 30.21 1023 10 16 0.00 0.00
11:15 am 11:15 Cloudy 34 1.2 28 -2.2 78 78 W 6 9 30.18 1022 10 16 0.00 0.00
11:35 am 11:35 Cloudy 34 1.1 28 -2.2 79 79 W 5 7 30.18 1022 10 16 0.00 0.00
11:55 am 11:55 Cloudy 35 1.5 28 -2.1 77 77 W 6 9 30.15 1021 10 16 0.00 0.00
12:15 pm 12:15 Cloudy 35 1.7 28 -2.2 76 76 WSW 7 11 30.15 1021 10 16 0.00 0.00
12:35 pm 12:35 Cloudy 35 1.7 28 -2.3 75 75 SSW 3 6 30.15 1021 10 16 0.00 0.00
12:55 pm 12:55 Cloudy 37 2.7 29 -1.6 74 74 W 6 9 30.15 1021 10 16 0.00 0.00
1:15 pm 13:15 Sunny 36 2.4 29 -1.8 74 74 SW 5 7 30.12 1020 10 16 0.00 0.00
1:35 pm 13:35 Partly Cloudy 37 2.9 29 -1.5 73 73 WNW 7 11 30.12 1020 10 16 0.00 0.00
1:55 pm 13:55 Mostly Cloudy 37 2.8 29 -1.8 72 72 W 6 9 30.12 1020 10 16 0.00 0.00
2:15 pm 14:15 Mostly Cloudy 37 3 29 -1.9 71 71 SW 6 9 30.12 1020 10 16 0.00 0.00
2:35 pm 14:35 Partly Cloudy 38 3.2 29 -1.7 71 71 SW 5 7 30.12 1020 10 16 0.00 0.00
2:55 pm 14:55 Sunny 37 3 29 -1.7 72 72 WSW 5 7 30.09 1019 10 16 0.00 0.00
3:15 pm 15:15 Sunny 38 3.3 29 -1.7 70 70 SSW 7 11 30.12 1020 10 16 0.00 0.00
3:35 pm 15:35 Sunny 38 3.4 29 -1.5 71 71 SSW 8 13 30.12 1020 10 16 0.00 0.00
3:55 pm 15:55 Sunny 38 3.6 29 -1.6 69 69 SW 6 9 30.12 1020 10 16 0.00 0.00
4:15 pm 16:15 Sunny 38 3.5 29 -1.5 70 70 WSW 5 7 30.12 1020 10 16 0.00 0.00
4:35 pm 16:35 Sunny 38 3.1 29 -1.6 72 72 SSW 6 9 30.09 1019 10 16 0.00 0.00
4:55 pm 16:55 Sunny 37 2.9 29 -1.6 73 73 S 8 13 30.09 1019 10 16 0.00 0.00
5:15 pm 17:15 Sunny 37 2.5 29 -1.8 74 74 S 5 7 30.09 1019 10 16 0.00 0.00
5:35 pm 17:35 Clear 35 1.8 29 -1.9 77 77 SSW 5 7 30.09 1019 10 16 0.00 0.00
5:55 pm 17:55 Clear 34 1.3 29 -1.8 80 80 W 3 6 30.09 1019 10 16 0.00 0.00
6:15 pm 18:15 Clear 35 1.5 30 -1.1 83 83 W 3 6 30.12 1020 10 16 0.00 0.00
6:35 pm 18:35 Clear 32 0.2 29 -1.7 87 87 Calm 30.12 1020 10 16 0.00 0.00
6:55 pm 18:55 Clear 31 -0.6 28 -2.2 89 89 Calm 30.12 1020 10 16 0.00 0.00
7:15 pm 19:15 Clear 32 0.1 29 -1.5 89 89 Calm 30.12 1020 10 16 0.00 0.00
7:35 pm 19:35 Clear 31 -0.3 30 -1.3 93 93 Calm 30.12 1020 10 16 0.00 0.00
7:55 pm 19:55 Clear 29 -1.6 28 -2.4 94 94 Calm 30.12 1020 10 16 0.00 0.00
8:15 pm 20:15 Clear 29 -1.9 27 -2.6 95 95 Calm 30.12 1020 10 16 0.00 0.00
8:35 pm 20:35 Clear 29 -1.5 28 -2.2 95 95 Calm 30.12 1020 10 16 0.00 0.00
8:55 pm 20:55 Clear 29 -1.7 28 -2.4 95 95 Calm 30.12 1020 10 16 0.00 0.00
9:15 pm 21:15 Clear 28 -2.3 27 -3 95 95 Calm 30.12 1020 7 11 0.00 0.00
9:35 pm 21:35 Clear 28 -2.3 27 -2.7 97 97 Calm 30.12 1020 7 11 0.00 0.00
9:55 pm 21:55 Clear 28 -2.4 27 -2.9 96 96 Calm 30.12 1020 7 11 0.00 0.00
10:15 pm 22:15 Clear with Mist and Fog 28 -2.3 27 -2.8 96 96 Calm 30.12 1020 7 11 0.00 0.00
10:35 pm 22:35 Clear with Mist and Fog 28 -2.3 27 -2.7 97 97 Calm 30.09 1019 5 8 0.00 0.00
10:55 pm 22:55 Clear with Mist and Fog 28 -2.2 27 -2.7 96 96 Calm 30.09 1019 7 11 0.00 0.00
11:15 pm 23:15 Clear with Mist and Fog 27 -2.6 26 -3.1 96 96 Calm 30.09 1019 7 11 0.00 0.00
11:35 pm 23:35 Clear with Mist and Fog 27 -3 26 -3.3 98 98 Calm 30.06 1018 3 4 0.00 0.00
11:55 pm 23:55 Clear with Mist and Fog 28 -2.3 28 -2.5 99 99 Calm 30.06 1018 3 5 0.00 0.00

Powered by AerisWeather